Stations météo

réclame
Mon MeteoGroup
Yecla, Espagne (8356): Température de l'air & dewpoint: 10.08.2018 03:00:00 - 16.08.2018 03:00:00 (CEST)Yecla, Espagne (8356): Vitesse du vent & gusts: 10.08.2018 03:00:00 - 16.08.2018 03:00:00 (CEST)Yecla, Espagne (8356): Direction du vent: 10.08.2018 03:00:00 - 16.08.2018 03:00:00 (CEST)Yecla, Espagne (8356): reduced air pressure: 10.08.2018 03:00:00 - 16.08.2018 03:00:00 (CEST)Yecla, Espagne (8356): visibility: 10.08.2018 03:00:00 - 16.08.2018 03:00:00 (CEST)Yecla, Espagne (8356): Ensoleillement: 10.08.2018 03:00:00 - 16.08.2018 03:00:00 (CEST)Yecla, Espagne (8356): Quantités de précipitations: 10.08.2018 03:00:00 - 16.08.2018 03:00:00 (CEST)
Date & Time tt [°C] td [°C] ff [km/h] ff [knt] fx [km/h] fx [knt] dd ppp [hPa] vv [km] sd [min] rr [mm]
16.08.2018 03:00:00 22,4 17,8 4 2 18 10 W 1016,1 20 0 0,0
16.08.2018 02:00:00 22,5 18,7 7 4 13 7 SSW 1016,6 19 0 -
16.08.2018 01:00:00 22,4 18,8 6 4 10 5 WSW 1016,5 19 0 0,0
16.08.2018 00:00:00 22,6 18,8 6 3 18 10 S 1015,9 20 0 0,0
15.08.2018 23:00:00 22,9 18,6 5 3 19 10 SSE 1015,6 20 0 0,0
15.08.2018 22:00:00 23,6 18,0 13 7 23 12 S 1015,6 20 0 0,0
15.08.2018 21:00:00 24,2 18,6 10 5 24 13 S 1015,7 20 0 0,0
15.08.2018 20:00:00 25,1 18,3 13 7 28 15 SSE 1014,8 20 0 -
15.08.2018 19:00:00 26,4 18,0 16 9 30 16 S 1014,4 20 4 0,0
15.08.2018 18:00:00 28,1 17,0 16 9 27 14 SSE 1013,5 20 39 0,0
15.08.2018 17:00:00 30,1 16,1 16 9 27 14 SSE 1013,2 20 53 0,0
15.08.2018 16:00:00 29,6 16,7 13 7 26 14 S 1014,1 20 21 0,0
15.08.2018 15:00:00 29,0 16,6 11 6 30 16 SE 1014,9 20 33 0,0
15.08.2018 14:00:00 28,5 16,7 10 5 23 12 SSE 1015,7 19 30 -
15.08.2018 13:00:00 26,5 17,5 9 5 19 10 S 1016,4 20 5 0,0
15.08.2018 12:00:00 25,7 17,6 3 1 18 10 WSW 1017,0 20 4 0,0
15.08.2018 11:00:00 25,5 17,5 7 4 15 8 E 1016,9 20 50 0,0
15.08.2018 10:00:00 23,0 18,1 3 2 9 5 NNW 1017,6 20 41 0,0
15.08.2018 09:00:00 21,5 18,3 3 1 7 4 ESE 1018,0 18 17 0,0
15.08.2018 08:00:00 19,5 17,5 4 2 8 5 W 1018,3 16 0 -
15.08.2018 07:00:00 20,0 17,6 3 2 7 4 NNE 1017,8 16 0 0,0
15.08.2018 06:00:00 20,0 17,6 5 3 8 5 NE 1017,7 18 0 0,0
15.08.2018 05:00:00 20,3 17,9 6 3 11 6 NE 1017,7 18 0 0,0
15.08.2018 04:00:00 20,7 18,1 9 5 16 9 NE 1017,6 18 0 0,0
15.08.2018 03:00:00 21,0 18,0 9 5 16 9 NNE 1017,7 20 0 0,0
15.08.2018 02:00:00 21,5 17,9 11 6 18 10 NE 1017,8 20 0 -
15.08.2018 01:00:00 22,6 17,5 8 5 15 8 ENE 1017,4 20 0 0,0
15.08.2018 00:00:00 23,3 17,9 8 5 13 7 ENE 1016,7 20 0 0,0
14.08.2018 23:00:00 24,3 18,0 3 1 13 7 S 1016,2 20 0 0,0
14.08.2018 22:00:00 25,3 18,0 7 4 14 8 SSE 1015,4 20 0 0,0
14.08.2018 21:00:00 26,1 18,2 9 5 24 13 S 1014,5 20 0 0,0
14.08.2018 20:00:00 27,6 17,5 11 6 26 14 SSE 1013,5 20 22 -
14.08.2018 19:00:00 29,7 17,2 14 8 27 15 SE 1013,0 19 59 0,0
14.08.2018 18:00:00 30,3 17,4 15 8 33 18 S 1012,7 18 60 0,0
14.08.2018 17:00:00 32,2 16,0 13 7 23 12 S 1012,2 20 46 0,0
14.08.2018 16:00:00 31,4 12,2 10 5 21 11 E 1012,8 20 34 0,0
14.08.2018 15:00:00 31,9 13,2 7 4 23 12 E 1013,3 20 51 0,0
14.08.2018 14:00:00 30,6 14,7 10 6 21 11 NE 1014,0 19 60 -
14.08.2018 13:00:00 29,2 16,0 10 6 23 13 E 1014,7 20 60 0,0
14.08.2018 12:00:00 26,8 17,0 12 6 26 14 ENE 1015,5 20 60 0,0
14.08.2018 11:00:00 25,5 16,9 14 8 28 15 ENE 1015,7 17 60 0,0
14.08.2018 10:00:00 23,3 18,4 12 6 19 11 ENE 1015,7 17 21 0,0
14.08.2018 09:00:00 22,0 19,0 3 2 8 4 E 1015,7 15 36 0,0
14.08.2018 08:00:00 19,2 17,7 3 2 8 4 S 1016,2 10 0 -
14.08.2018 07:00:00 18,8 17,1 3 1 7 4 SW 1015,8 6 0 0,0
14.08.2018 06:00:00 18,3 15,9 5 3 11 6 WSW 1014,8 9 0 0,0
14.08.2018 05:00:00 19,1 16,3 4 2 6 4 W 1014,7 10 0 0,0
14.08.2018 04:00:00 20,1 16,9 4 2 9 5 SSW 1014,2 12 0 0,0
14.08.2018 03:00:00 21,4 17,8 9 5 12 6 W 1013,8 13 0 0,0
14.08.2018 02:00:00 21,6 17,2 4 2 12 7 SW 1013,9 14 0 -
14.08.2018 01:00:00 22,5 17,2 4 2 11 6 W 1013,4 14 0 0,0
14.08.2018 00:00:00 23,7 17,9 7 4 9 5 WSW 1012,6 15 0 0,0
13.08.2018 23:00:00 25,7 18,8 4 2 11 6 N 1011,6 17 0 0,0
13.08.2018 22:00:00 27,0 18,0 3 2 18 10 ESE 1010,5 17 0 0,0
13.08.2018 21:00:00 28,0 18,7 13 7 31 17 SSW 1009,7 17 4 0,0
13.08.2018 20:00:00 30,8 18,2 16 9 29 16 S 1008,6 19 24 -
13.08.2018 19:00:00 34,4 6,7 11 6 23 12 WSW 1007,9 20 47 0,0
13.08.2018 18:00:00 34,4 6,7 6 3 19 11 E 1008,0 20 39 0,0
13.08.2018 17:00:00 33,4 7,4 9 5 24 13 NNW 1009,0 20 43 0,0
13.08.2018 16:00:00 34,7 6,1 11 6 30 16 SSW 1009,2 20 60 0,0
13.08.2018 15:00:00 34,2 8,0 13 7 26 14 WSW 1009,7 20 49 0,0
13.08.2018 14:00:00 32,8 11,9 7 4 23 12 SW 1010,8 17 60 -
13.08.2018 13:00:00 30,3 14,4 11 6 21 12 SW 1012,0 20 60 0,0
13.08.2018 12:00:00 28,0 16,6 15 8 26 14 WSW 1012,7 20 52 0,0
13.08.2018 11:00:00 26,7 17,5 14 8 26 14 WSW 1013,2 14 60 0,0
13.08.2018 10:00:00 24,6 18,3 11 6 22 12 WSW 1013,6 16 53 0,0
13.08.2018 09:00:00 22,9 18,5 12 6 21 11 WSW 1014,0 13 40 0,0
13.08.2018 08:00:00 20,2 17,4 10 5 19 10 WSW 1014,4 13 0 -
13.08.2018 07:00:00 20,7 17,7 10 6 19 11 SW 1013,9 16 0 0,0
13.08.2018 06:00:00 20,6 18,2 5 3 8 5 WSW 1013,8 13 0 0,0
13.08.2018 05:00:00 21,5 18,5 3 1 12 6 SE 1013,9 15 0 0,0
13.08.2018 04:00:00 22,2 18,8 11 6 18 10 NNE 1014,2 16 0 0,0
13.08.2018 03:00:00 22,3 18,9 5 3 23 13 E 1014,5 14 0 0,0
13.08.2018 02:00:00 22,8 19,3 14 8 29 16 NE 1015,2 16 0 -
13.08.2018 01:00:00 22,9 18,0 10 5 15 8 NE 1014,8 18 0 0,0
13.08.2018 00:00:00 23,7 12,6 5 3 10 5 NE 1014,2 20 0 0,0
12.08.2018 23:00:00 25,0 14,7 5 3 15 8 NE 1014,1 20 0 0,0
12.08.2018 22:00:00 26,1 15,8 10 5 16 9 SSW 1013,0 20 0 0,0
12.08.2018 21:00:00 27,3 15,6 9 5 24 13 SSW 1012,4 20 27 0,0
12.08.2018 20:00:00 28,9 15,1 10 5 24 13 SSE 1012,3 20 11 -
12.08.2018 19:00:00 30,3 13,2 13 7 30 16 SSE 1011,2 20 35 0,0
12.08.2018 18:00:00 32,3 13,1 15 8 29 16 SSE 1011,5 20 60 0,0
12.08.2018 17:00:00 33,0 14,6 14 7 36 20 S 1012,0 19 60 0,0
12.08.2018 16:00:00 33,8 12,7 15 8 30 16 SSE 1012,4 20 60 0,0
12.08.2018 15:00:00 33,3 11,8 8 5 22 12 S 1013,1 19 60 0,0
12.08.2018 14:00:00 32,6 11,2 10 5 22 12 S 1014,2 20 60 -
12.08.2018 13:00:00 30,9 11,8 9 5 20 11 S 1015,1 20 60 0,0
12.08.2018 12:00:00 28,9 11,9 8 4 15 8 SSW 1016,0 14 60 0,0
12.08.2018 11:00:00 26,5 14,2 6 3 11 6 SSW 1016,5 20 60 0,0
12.08.2018 10:00:00 23,8 16,3 3 2 8 4 ESE 1017,2 20 60 0,0
12.08.2018 09:00:00 20,1 16,1 3 2 8 5 E 1018,4 16 55 0,0
12.08.2018 08:00:00 17,4 15,5 5 3 8 5 SSW 1018,9 16 0 -
12.08.2018 07:00:00 17,1 15,1 1 1 9 5 SW 1018,7 14 0 0,0
12.08.2018 06:00:00 17,4 15,3 4 2 7 4 WSW 1018,7 12 0 0,0
12.08.2018 05:00:00 - - - - - - - - - - -
12.08.2018 04:00:00 19,0 15,9 3 2 14 8 NNE 1019,1 16 0 0,0
12.08.2018 03:00:00 19,6 16,2 11 6 14 8 W 1019,1 20 0 0,0
12.08.2018 02:00:00 20,0 16,5 4 2 13 7 W 1019,8 18 0 -
12.08.2018 01:00:00 21,3 17,1 6 4 11 6 W 1019,6 16 0 0,0
12.08.2018 00:00:00 22,2 16,7 6 3 16 8 W 1019,5 20 0 0,0
11.08.2018 23:00:00 22,6 16,1 6 3 9 5 SW 1019,4 20 0 0,0
11.08.2018 22:00:00 23,9 16,1 4 2 17 9 S 1019,0 20 0 0,0
11.08.2018 21:00:00 25,1 16,0 12 7 28 15 S 1018,4 20 24 0,0
11.08.2018 20:00:00 27,8 16,1 15 8 28 15 SSE 1017,1 20 60 -
11.08.2018 19:00:00 29,3 16,1 13 7 30 16 S 1016,5 20 60 0,0
11.08.2018 18:00:00 30,2 15,9 12 7 29 16 SE 1017,0 20 60 0,0
11.08.2018 17:00:00 30,6 16,2 16 9 29 16 SE 1017,2 19 52 0,0
11.08.2018 16:00:00 31,1 15,5 8 5 22 12 SE 1017,6 20 52 0,0
11.08.2018 15:00:00 30,9 15,7 8 4 22 12 SSE 1018,3 15 39 0,0
11.08.2018 14:00:00 30,4 16,0 9 5 19 10 SSE 1019,2 20 41 -
11.08.2018 13:00:00 28,2 17,1 6 3 21 12 SSE 1020,4 20 49 0,0
11.08.2018 12:00:00 26,8 17,0 8 4 20 11 ENE 1021,1 20 48 0,0
11.08.2018 11:00:00 25,1 17,5 13 7 21 11 E 1021,7 18 43 0,0
11.08.2018 10:00:00 22,9 19,3 8 4 15 8 ENE 1022,3 15 15 0,0
11.08.2018 09:00:00 21,7 19,4 1 1 8 5 ENE 1022,0 13 23 0,0
11.08.2018 08:00:00 20,6 18,9 5 3 10 5 NE 1021,7 11 0 -
11.08.2018 07:00:00 20,6 18,9 6 3 13 7 ENE 1021,3 12 0 0,0
11.08.2018 06:00:00 20,5 18,8 3 1 8 4 E 1021,4 4,7 0 0,0
11.08.2018 05:00:00 20,9 19,2 7 4 17 9 NE 1021,6 7 0 0,0
11.08.2018 04:00:00 21,1 19,4 6 4 12 7 NE 1022,0 8 0 0,0
11.08.2018 03:00:00 21,3 19,4 6 3 12 6 NE 1022,1 8 0 0,0
11.08.2018 02:00:00 21,7 19,4 6 3 12 7 N 1022,3 13 0 -
11.08.2018 01:00:00 22,0 19,3 9 5 22 12 NE 1022,4 16 0 0,0
11.08.2018 00:00:00 22,4 19,3 5 3 23 12 NNW 1022,1 1,2 0 0,0
10.08.2018 23:00:00 22,3 19,5 13 7 34 19 E 1020,8 17 0 0,0
10.08.2018 22:00:00 22,6 19,6 15 8 31 17 NE 1022,0 14 0 0,0
10.08.2018 21:00:00 23,1 19,3 17 9 32 17 ENE 1020,1 17 0 0,0
10.08.2018 20:00:00 23,5 19,2 14 8 31 17 E 1019,3 17 0 -
10.08.2018 19:00:00 23,9 19,6 19 11 36 19 E 1019,5 20 25 1,4
10.08.2018 18:00:00 25,2 20,5 24 13 37 20 ENE 1018,9 7 37 2,2
10.08.2018 17:00:00 29,8 17,3 22 12 36 19 NE 1017,5 20 45 0,0
10.08.2018 16:00:00 29,3 16,8 17 9 33 18 ENE 1018,0 18 40 0,0
10.08.2018 15:00:00 29,1 16,0 15 8 28 15 ENE 1018,5 17 42 0,0
10.08.2018 14:00:00 28,1 16,4 13 7 27 14 E 1019,1 17 49 -
10.08.2018 13:00:00 26,9 16,5 17 9 31 17 NE 1019,9 20 59 0,0
10.08.2018 12:00:00 24,9 16,6 21 11 31 17 NE 1020,7 20 46 0,0
10.08.2018 11:00:00 24,1 16,4 22 12 35 19 ENE 1020,8 20 49 0,0
10.08.2018 10:00:00 22,0 17,0 23 12 35 19 NE 1020,9 20 29 0,0
10.08.2018 09:00:00 20,7 17,5 14 8 23 12 NE 1021,1 13 0 0,0
10.08.2018 08:00:00 19,9 17,3 15 8 31 17 NE 1020,5 13 0 -
10.08.2018 07:00:00 19,9 16,9 22 12 35 19 ENE 1019,8 16 0 0,0
10.08.2018 06:00:00 20,9 18,1 21 11 41 22 NE 1019,0 16 0 0,0
10.08.2018 05:00:00 22,5 19,3 16 9 32 18 ENE 1017,8 14 0 0,0
10.08.2018 04:00:00 22,1 19,3 14 8 24 13 NE 1017,2 12 0 0,0
10.08.2018 03:00:00 22,5 19,3 10 5 23 13 ENE 1017,1 13 0 0,0

tt = Température de l'air
td = dewpoint
ff = Vitesse du vent
fx = gusts
dd = Direction du vent
ppp = reduced air pressure
vv = visibility
sd = Ensoleillement
rr = Quantités de précipitations

stations d'obs. à proximité